TimeCST,TemperatureF,Dew PointF,Humidity,Sea Level PressureIn,VisibilityMPH,Wind Direction,Wind SpeedMPH,Gust SpeedMPH,PrecipitationIn,Events,Conditions,WindDirDegrees,DateUTC
12:15 AM,10.4,1.4,67,29.89,10.0,NW,5.8,-,N/A,,Clear,310,2014-01-31 06:15:00
12:35 AM,10.4,1.4,67,29.90,10.0,NW,6.9,-,N/A,,Clear,310,2014-01-31 06:35:00
12:55 AM,8.6,-0.4,67,29.90,10.0,NW,5.8,-,N/A,,Clear,310,2014-01-31 06:55:00
1:15 AM,8.6,-0.4,67,29.91,10.0,WNW,6.9,-,N/A,,Clear,300,2014-01-31 07:15:00
1:35 AM,8.6,-0.4,67,29.92,10.0,West,5.8,-,N/A,,Clear,280,2014-01-31 07:35:00
1:55 AM,6.8,-0.4,72,29.93,10.0,West,4.6,-,N/A,,Clear,280,2014-01-31 07:55:00
2:15 AM,6.8,-0.4,72,29.94,10.0,West,4.6,-,N/A,,Clear,280,2014-01-31 08:15:00
2:35 AM,5.0,-2.2,72,29.94,10.0,WNW,5.8,-,N/A,,Clear,300,2014-01-31 08:35:00
2:55 AM,5.0,-2.2,72,29.95,10.0,West,3.5,-,N/A,,Clear,260,2014-01-31 08:55:00
3:15 AM,3.2,-4.0,72,29.96,10.0,West,4.6,-,N/A,,Clear,270,2014-01-31 09:15:00
3:35 AM,3.2,-4.0,72,29.97,10.0,West,4.6,-,N/A,,Clear,260,2014-01-31 09:35:00
3:55 AM,3.2,-5.8,66,29.97,10.0,WNW,6.9,-,N/A,,Clear,300,2014-01-31 09:55:00
4:15 AM,3.2,-5.8,66,29.97,10.0,West,5.8,-,N/A,,Clear,280,2014-01-31 10:15:00
4:35 AM,1.4,-5.8,72,29.97,10.0,NW,3.5,-,N/A,,Clear,310,2014-01-31 10:35:00
4:55 AM,3.2,-5.8,66,29.97,10.0,Calm,Calm,-,N/A,,Clear,0,2014-01-31 10:55:00
5:15 AM,-0.4,-5.8,78,29.98,10.0,Calm,Calm,-,N/A,,Clear,0,2014-01-31 11:15:00
5:35 AM,-5.8,-9.4,84,29.99,10.0,West,4.6,-,N/A,,Clear,280,2014-01-31 11:35:00
5:55 AM,-2.2,-7.6,78,30.01,10.0,WNW,5.8,-,N/A,,Clear,300,2014-01-31 11:55:00
6:15 AM,-4.0,-9.4,78,30.01,10.0,NW,4.6,-,N/A,,Clear,310,2014-01-31 12:15:00
6:35 AM,-5.8,-9.4,84,30.02,10.0,Calm,Calm,-,N/A,,Clear,0,2014-01-31 12:35:00
6:55 AM,-5.8,-9.4,84,30.03,10.0,Calm,Calm,-,N/A,,Clear,0,2014-01-31 12:55:00
7:15 AM,-4.0,-7.6,85,30.03,10.0,Calm,Calm,-,N/A,,Clear,0,2014-01-31 13:15:00
7:35 AM,-4.0,-9.4,78,30.05,10.0,WSW,3.5,-,N/A,,Clear,240,2014-01-31 13:35:00
7:55 AM,-4.0,-9.4,78,30.06,10.0,SW,5.8,-,N/A,,Clear,220,2014-01-31 13:55:00
8:15 AM,-4.0,-9.4,78,30.07,10.0,SW,5.8,-,N/A,,Clear,220,2014-01-31 14:15:00
8:35 AM,-4.0,-9.4,78,30.09,10.0,SW,6.9,-,N/A,,Clear,230,2014-01-31 14:35:00
8:55 AM,-2.2,-9.4,71,30.09,10.0,WSW,5.8,-,N/A,,Clear,240,2014-01-31 14:55:00
9:15 AM,-0.4,-9.4,66,30.10,10.0,WSW,8.1,-,N/A,,Clear,240,2014-01-31 15:15:00
9:35 AM,-0.4,-9.4,66,30.10,10.0,WSW,5.8,-,N/A,,Clear,250,2014-01-31 15:35:00
9:55 AM,-0.4,-9.4,66,30.10,10.0,WSW,5.8,-,N/A,,Clear,240,2014-01-31 15:55:00
10:15 AM,-0.4,-9.4,66,30.11,10.0,WSW,6.9,-,N/A,,Clear,250,2014-01-31 16:15:00
10:35 AM,1.4,-9.4,61,30.12,10.0,WSW,8.1,-,N/A,,Clear,240,2014-01-31 16:35:00
10:55 AM,1.4,-9.4,61,30.13,10.0,SW,10.4,-,N/A,,Clear,230,2014-01-31 16:55:00
11:15 AM,1.4,-9.4,61,30.12,10.0,WSW,6.9,-,N/A,,Clear,240,2014-01-31 17:15:00
11:35 AM,1.4,-9.4,61,30.12,10.0,West,9.2,-,N/A,,Clear,280,2014-01-31 17:35:00
11:55 AM,3.2,-9.4,56,30.11,10.0,West,10.4,-,N/A,,Clear,270,2014-01-31 17:55:00
12:15 PM,3.2,-9.4,56,30.11,1.8,West,10.4,-,N/A,,Haze,280,2014-01-31 18:15:00
12:35 PM,3.2,-7.6,61,30.10,7.0,West,10.4,-,N/A,,Scattered Clouds,270,2014-01-31 18:35:00
12:55 PM,3.2,-9.4,56,30.09,10.0,West,6.9,-,N/A,,Clear,270,2014-01-31 18:55:00
1:15 PM,5.0,-9.4,52,30.09,10.0,West,10.4,-,N/A,,Clear,270,2014-01-31 19:15:00
1:35 PM,5.0,-7.6,56,30.09,10.0,West,6.9,-,N/A,,Clear,260,2014-01-31 19:35:00
1:55 PM,5.0,-7.6,56,30.09,10.0,West,9.2,-,N/A,,Clear,260,2014-01-31 19:55:00
2:15 PM,5.0,-7.6,56,30.09,10.0,WSW,6.9,-,N/A,,Clear,250,2014-01-31 20:15:00
2:35 PM,6.8,-7.6,52,30.08,10.0,WSW,8.1,-,N/A,,Clear,250,2014-01-31 20:35:00
2:55 PM,6.8,-7.6,52,30.08,10.0,WSW,5.8,-,N/A,,Clear,250,2014-01-31 20:55:00
3:15 PM,6.8,-7.6,52,30.08,10.0,WSW,4.6,-,N/A,,Clear,250,2014-01-31 21:15:00
3:35 PM,5.0,-7.6,56,30.08,10.0,West,5.8,-,N/A,,Clear,270,2014-01-31 21:35:00
3:55 PM,6.8,-7.6,52,30.07,10.0,WSW,5.8,-,N/A,,Clear,240,2014-01-31 21:55:00
4:15 PM,5.0,-7.6,56,30.07,10.0,SW,4.6,-,N/A,,Clear,230,2014-01-31 22:15:00
4:35 PM,5.0,-7.6,56,30.07,10.0,SW,4.6,-,N/A,,Clear,230,2014-01-31 22:35:00
4:55 PM,3.2,-7.6,61,30.08,10.0,WSW,4.6,-,N/A,,Clear,240,2014-01-31 22:55:00
5:15 PM,1.4,-9.4,61,30.08,10.0,SW,3.5,-,N/A,,Clear,220,2014-01-31 23:15:00
5:35 PM,1.4,-9.4,61,30.08,10.0,WSW,4.6,-,N/A,,Clear,240,2014-01-31 23:35:00
5:55 PM,1.4,-9.4,61,30.08,10.0,SW,5.8,-,N/A,,Clear,220,2014-01-31 23:55:00
6:15 PM,-0.4,-9.4,66,30.08,10.0,SSW,3.5,-,N/A,,Clear,210,2014-02-01 00:15:00
6:35 PM,-0.4,-9.4,66,30.08,10.0,Calm,Calm,-,N/A,,Clear,0,2014-02-01 00:35:00
6:55 PM,-4.0,-11.2,71,30.09,10.0,SSW,4.6,-,N/A,,Clear,200,2014-02-01 00:55:00
7:15 PM,-0.4,-9.4,66,30.08,10.0,WSW,3.5,-,N/A,,Clear,240,2014-02-01 01:15:00
7:35 PM,-4.0,-9.4,78,30.07,10.0,WSW,3.5,-,N/A,,Clear,240,2014-02-01 01:35:00
7:55 PM,-5.8,-13.0,71,30.08,10.0,SW,3.5,-,N/A,,Clear,230,2014-02-01 01:55:00
8:15 PM,-7.6,-13.0,77,30.08,10.0,Calm,Calm,-,N/A,,Clear,0,2014-02-01 02:15:00
8:35 PM,-7.6,-11.2,84,30.08,10.0,Calm,Calm,-,N/A,,Clear,0,2014-02-01 02:35:00
8:55 PM,-5.8,-11.2,77,30.08,10.0,SSW,3.5,-,N/A,,Clear,200,2014-02-01 02:55:00
9:15 PM,-7.6,-13.0,77,30.09,-9999.0,Calm,Calm,-,N/A,,Clear,0,2014-02-01 03:15:00
9:35 PM,-7.6,-14.8,71,30.08,-9999.0,Calm,Calm,-,N/A,,Clear,0,2014-02-01 03:35:00
9:55 PM,-7.6,-13.0,77,30.09,-9999.0,Calm,Calm,-,N/A,,Clear,0,2014-02-01 03:55:00
10:15 PM,-9.4,-14.8,77,30.07,-9999.0,Calm,Calm,-,N/A,,Clear,0,2014-02-01 04:15:00
10:35 PM,-7.6,-13.0,77,30.07,-9999.0,Calm,Calm,-,N/A,,Clear,0,2014-02-01 04:35:00
10:55 PM,-9.4,-14.8,77,30.06,-9999.0,Calm,Calm,-,N/A,,Clear,0,2014-02-01 04:55:00
11:15 PM,-9.4,-14.8,77,30.07,-9999.0,Calm,Calm,-,N/A,,Unknown,0,2014-02-01 05:15:00
11:35 PM,-9.4,-14.8,77,30.07,-9999.0,Calm,Calm,-,N/A,,Clear,0,2014-02-01 05:35:00